Location: Unspecified
(49.8670°N, 0.0000°E)
Time: 10:49:04
(UTC+00:00)

S-56A Canister/Altair - Pass Details

Date: 25 June 2019
Orbit: 632 x 2500 km, 38.9° (Epoch: 20 July)

Event Time Altitude Azimuth Distance (km) Brightness Sun altitude
Rises 18:04:21 0° 262° (W) 4,665 12.8 17.4°
Reaches altitude 10° 18:08:18 10° 253° (WSW) 3,348 11.9 16.8°
Maximum altitude 18:14:56 30° 196° (SSW) 1,725 9.5 15.8°
Drops below altitude 10° 18:19:48 10° 136° (SE) 2,411 9.6 15.0°
Sets 18:22:11 0° 125° (SE) 3,184 10.1 14.7°
